Total_Precipitation_Accumulation
0.01 0.00 0.01 0.01 0.01 0.01 0.01 0.01 0.02 0.02 0.03 0.05 0.06 0.06 0.06 0.06 0.06 0.05 0.04 0.05 0.08 0.15 0.20 0.21 0.21 0.26 0.26 0.26 0.21 0.15 0.11 0.07 0.05 0.04 0.03 0.03 0.05 0.09 0.12 0.08 0.06 0.06 0.01
0.01 0.00 0.00 0.01 0.02 0.01 0.01 0.01 0.02 0.02 0.02 0.03 0.03 0.03 0.03 0.03 0.04 0.07 0.06 0.07 0.12 0.17 0.17 0.19 0.20 0.21 0.19 0.17 0.13 0.09 0.05 0.03 0.02 0.03 0.03 0.09 0.19 0.21 0.19 0.16 0.13 0.11 0.01
0.00 0.00 0.00 0.01 0.02 0.01 0.01 0.01 0.02 0.02 0.02 0.02 0.03 0.02 0.02 0.03 0.04 0.07 0.08 0.10 0.15 0.16 0.14 0.14 0.15 0.14 0.12 0.07 0.04 0.02 0.01 0.01 0.01 0.02 0.09 0.28 0.44 0.31 0.20 0.19 0.18 0.12 0.03
0.00 0.00 0.00 0.01 0.01 0.01 0.01 0.01 0.01 0.01 0.02 0.03 0.05 0.04 0.03 0.03 0.04 0.06 0.08 0.10 0.13 0.13 0.11 0.10 0.10 0.08 0.05 0.02 0.02 0.01 0.00 0.00 0.01 0.04 0.10 0.32 0.62 0.52 0.30 0.22 0.22 0.18 0.14
0.01 0.01 0.00 0.00 0.01 0.01 0.00 0.01 0.01 0.02 0.02 0.04 0.06 0.07 0.05 0.03 0.04 0.06 0.11 0.15 0.17 0.16 0.17 0.17 0.14 0.07 0.03 0.02 0.02 0.01 0.01 0.00 0.02 0.07 0.20 0.46 0.76 0.67 0.40 0.26 0.27 0.27 0.27
0.01 0.00 0.00 0.01 0.01 0.01 0.01 0.01 0.02 0.04 0.04 0.04 0.05 0.07 0.08 0.05 0.04 0.09 0.17 0.21 0.22 0.21 0.25 0.31 0.25 0.16 0.08 0.04 0.02 0.02 0.01 0.01 0.04 0.14 0.31 0.52 0.69 0.55 0.34 0.24 0.21 0.28 0.33
0.01 0.00 0.00 0.01 0.01 0.01 0.01 0.02 0.04 0.05 0.06 0.08 0.07 0.08 0.10 0.06 0.04 0.10 0.20 0.25 0.26 0.25 0.25 0.23 0.17 0.13 0.10 0.06 0.04 0.03 0.02 0.02 0.05 0.17 0.37 0.51 0.52 0.34 0.22 0.18 0.16 0.18 0.22
0.01 0.00 0.00 0.00 0.01 0.02 0.02 0.04 0.05 0.04 0.05 0.07 0.07 0.09 0.10 0.06 0.04 0.09 0.18 0.26 0.31 0.28 0.21 0.16 0.12 0.09 0.08 0.06 0.05 0.03 0.03 0.04 0.05 0.13 0.25 0.29 0.31 0.17 0.13 0.12 0.11 0.11 0.11
0.05 0.04 0.03 0.01 0.01 0.02 0.02 0.03 0.04 0.03 0.03 0.04 0.04 0.06 0.08 0.07 0.06 0.09 0.16 0.21 0.20 0.14 0.12 0.10 0.09 0.07 0.04 0.03 0.02 0.02 0.04 0.05 0.06 0.07 0.09 0.11 0.13 0.07 0.05 0.04 0.04 0.04 0.04
0.30 0.53 0.33 0.07 0.02 0.01 0.01 0.01 0.01 0.01 0.01 0.01 0.01 0.03 0.05 0.06 0.08 0.10 0.13 0.11 0.08 0.04 0.03 0.03 0.03 0.02 0.02 0.01 0.01 0.01 0.02 0.02 0.02 0.02 0.02 0.02 0.02 0.02 0.01 0.01 0.01 0.01 0.01
0.52 0.73 0.33 0.11 0.03 0.01 0.00 0.00 0.01 0.00 0.01 0.01 0.02 0.03 0.05 0.12 0.15 0.15 0.09 0.08 0.04 0.02 0.01 0.00 0.01 0.01 0.01 0.00 0.00 0.00 0.00 0.00 0.00 0.00 0.00 0.00 0.00 0.01 0.01 0.00 0.00 0.00 0.00
0.36 0.28 0.16 0.08 0.02 0.01 0.01 0.01 0.01 0.01 0.01 0.02 0.04 0.04 0.11 0.19 0.21 0.14 0.06 0.04 0.02 0.01 0.00 0.00 0.00 0.00 0.00 0.00 0.00 0.00 0.00 0.00 0.00 0.00 0.00 0.00 0.00 0.00 0.01 0.01 0.00 0.00 0.00
0.35 0.13 0.07 0.06 0.04 0.02 0.00 0.01 0.01 0.01 0.01 0.02 0.04 0.05 0.11 0.10 0.08 0.05 0.04 0.02 0.01 0.00 0.00 0.00 0.00 0.00 0.00 0.00 0.00 0.00 0.00 0.00 0.00 0.00 0.00 0.00 0.00 0.00 0.01 0.01 0.01 0.00 0.00
0.23 0.13 0.07 0.07 0.05 0.03 0.01 0.01 0.02 0.02 0.02 0.03 0.03 0.03 0.06 0.07 0.05 0.04 0.04 0.03 0.02 0.01 0.01 0.00 0.00 0.00 0.00 0.00 0.00 0.00 0.00 0.00 0.00 0.00 0.00 0.00 0.00 0.01 0.01 0.01 0.01 0.01 0.01
0.19 0.12 0.11 0.10 0.05 0.03 0.01 0.00 0.01 0.01 0.01 0.02 0.02 0.01 0.02 0.02 0.03 0.03 0.02 0.01 0.01 0.02 0.02 0.02 0.01 0.01 0.00 0.00 0.00 0.00 0.00 0.00 0.00 0.00 0.00 0.00 0.01 0.02 0.03 0.03 0.03 0.03 0.03
0.17 0.14 0.14 0.10 0.03 0.02 0.01 0.01 0.01 0.01 0.02 0.03 0.02 0.01 0.01 0.02 0.02 0.02 0.02 0.02 0.01 0.01 0.02 0.01 0.00 0.01 0.00 0.00 0.00 0.00 0.00 0.00 0.00 0.00 0.01 0.01 0.02 0.02 0.03 0.05 0.05 0.07 0.06
0.22 0.19 0.19 0.08 0.03 0.02 0.01 0.01 0.02 0.03 0.04 0.05 0.04 0.02 0.01 0.01 0.02 0.02 0.04 0.03 0.02 0.01 0.02 0.02 0.01 0.01 0.01 0.01 0.01 0.01 0.01 0.01 0.02 0.02 0.02 0.02 0.03 0.04 0.05 0.07 0.07 0.08 0.07
0.31 0.43 0.37 0.12 0.05 0.04 0.03 0.03 0.02 0.03 0.03 0.04 0.04 0.03 0.03 0.03 0.03 0.04 0.05 0.04 0.04 0.03 0.04 0.05 0.05 0.05 0.05 0.04 0.04 0.04 0.04 0.04 0.04 0.04 0.04 0.04 0.03 0.04 0.04 0.05 0.06 0.07 0.07
0.53 0.86 0.64 0.19 0.08 0.07 0.07 0.06 0.06 0.07 0.09 0.10 0.10 0.10 0.10 0.07 0.06 0.06 0.07 0.07 0.07 0.07 0.09 0.11 0.13 0.12 0.12 0.11 0.09 0.07 0.06 0.04 0.05 0.05 0.04 0.04 0.04 0.04 0.03 0.04 0.05 0.05 0.06
0.95 1.39 0.92 0.35 0.16 0.11 0.12 0.13 0.16 0.18 0.20 0.22 0.20 0.17 0.15 0.14 0.14 0.13 0.14 0.15 0.15 0.16 0.17 0.19 0.19 0.15 0.12 0.10 0.07 0.05 0.05 0.04 0.04 0.04 0.04 0.03 0.03 0.03 0.02 0.02 0.03 0.04 0.07
0.89 1.09 0.79 0.48 0.31 0.24 0.28 0.33 0.39 0.41 0.41 0.38 0.37 0.37 0.38 0.37 0.34 0.29 0.26 0.26 0.23 0.21 0.17 0.13 0.11 0.10 0.09 0.06 0.05 0.03 0.02 0.02 0.01 0.01 0.01 0.01 0.01 0.01 0.01 0.01 0.01 0.01 0.03
0.58 0.62 0.61 0.55 0.53 0.43 0.45 0.53 0.62 0.68 0.66 0.68 0.75 0.82 0.79 0.64 0.49 0.42 0.35 0.26 0.21 0.16 0.13 0.11 0.09 0.06 0.04 0.03 0.03 0.02 0.01 0.00 0.00 0.00 0.00 0.00 0.00 0.00 0.00 0.01 0.01 0.01 0.00
0.45 0.51 0.58 0.61 0.66 0.65 0.71 0.77 0.86 0.99 1.07 1.11 1.13 1.09 0.96 0.74 0.55 0.45 0.36 0.27 0.19 0.14 0.12 0.10 0.08 0.07 0.04 0.02 0.01 0.02 0.02 0.01 0.00 0.00 0.00 0.00 0.00 0.00 0.00 0.00 0.00 0.00 0.00
0.42 0.50 0.54 0.64 0.77 0.89 0.97 1.00 1.15 1.33 1.35 1.26 1.02 0.85 0.72 0.59 0.49 0.40 0.32 0.26 0.21 0.18 0.13 0.07 0.04 0.04 0.03 0.01 0.01 0.01 0.01 0.02 0.02 0.01 0.00 0.00 0.00 0.00 0.00 0.00 0.00 0.00 0.00
0.42 0.49 0.61 0.72 0.87 1.03 1.19 1.30 1.45 1.45 1.22 0.97 0.76 0.63 0.55 0.46 0.40 0.34 0.30 0.27 0.23 0.15 0.08 0.03 0.02 0.02 0.01 0.01 0.01 0.01 0.01 0.01 0.02 0.03 0.02 0.01 0.00 0.00 0.00 0.00 0.00 0.00 0.00
0.36 0.49 0.62 0.77 0.92 1.09 1.28 1.41 1.39 1.27 1.08 0.85 0.67 0.57 0.51 0.42 0.35 0.30 0.25 0.19 0.12 0.07 0.04 0.02 0.02 0.01 0.01 0.02 0.01 0.01 0.02 0.02 0.02 0.03 0.03 0.02 0.01 0.00 0.00 0.00 0.00 0.00 0.01